Location: Newark
(40.9833°N, 0.0333°W)
Time: 01:16:39
(UTC+00:00)

Altair - Pass Details

Date: 03 November 2020
Orbit: 1502 x 1682 km, 47.2° (Epoch: 02 December)

Event Time Altitude Azimuth Distance (km) Brightness Sun altitude
Rises 09:35:23 0° 298° (WNW) 4,731 9.6 26.4°
Reaches altitude 10° 09:38:26 10° 295° (WNW) 3,768 9.2 26.7°
Maximum altitude 09:47:54 66° 216° (SW) 1,734 8.4 27.7°
Drops below altitude 10° 09:57:42 10° 137° (SE) 3,894 11.2 28.6°
Sets 10:00:54 0° 135° (SE) 4,895 11.2 28.9°
